{"data":{"norad_id":60512,"epoch":"2026-05-25T04:15:07.140672Z","epoch_age_seconds":60017,"freshness":"FRESH","line1":"1 60512U 24149AW  26145.17716598  .00013908  00000+0  33712-3 0  9995","line2":"2 60512  97.3717 229.3611 0003617  14.3269 345.8080 15.41178676 98827","mean_motion":15.41178676,"eccentricity":0.0003617,"inclination_deg":97.3717,"raan_deg":229.3611,"arg_perigee_deg":14.3269,"mean_anomaly_deg":345.808,"bstar":0.00033712,"rev_number":9882,"period_min":93.434980799073,"perigee_km":440.16239888838,"apogee_km":445.09654135287,"semimajor_km":6820.7664701206,"source":"CELESTRAK","updated_at":"2026-05-25T13:38:13.333023Z"}}